Weather Roundup
Issued by NWS Chicago, IL

Home | Current Version | Previous Version | Graphics & Text | Print | Product List | Glossary On
Versions: 1 2 3 4 5 6 7 8 9 10 11 12 13 14 15 16 17 18 19 20 21 22 23 24 25 26 27 28 29 30 31 32 33 34 35 36 37 38 39 40 41 42 43 44 45 46 47 48 49 50
000
NZUS59 KLOT 302222
HRRLOT

CHICAGO AREA WEATHER ROUNDUP
NATIONAL WEATHER SERVICE CHICAGO/ROMEOVILLE IL
500 PM CDT SAT MAY 30 2015

NOTE: "FAIR" INDICATES FEW OR NO CLOUDS BELOW 12,000 FEET WITH NO
SIGNIFICANT WEATHER AND/OR OBSTRUCTIONS TO VISIBILITY.

* THESE STATIONS ARE NOT UNDER NWS QUALITY CONTROL. THEY ALSO MAY NOT
  REPORT WEATHER SUCH AS PRECIPITATION OR FOG.

ILZ005-006-012>014-019>023-302300-
NORTHEAST ILLINOIS

CITY           SKY/WX    TMP DP  RH WIND       PRES   REMARKS
OHARE          LGT RAIN  48  46  93 N22       30.07R FOG
MIDWAY         RAIN      50  47  89 N15G26    30.07R FOG
AURORA         LGT RAIN  52  48  86 NE26G33   30.05S
LANSING*       LGT RAIN  48  45  91 N14G24    30.04S
JOLIET*        LGT RAIN  51  50  95 NE13G30   30.04S
WAUKEGAN       LGT RAIN  46  43  89 N20G35    30.09R
DUPAGE AIRPORT LGT RAIN  51  48  89 NE23G30   30.06S
WHEELING       LGT RAIN  47  44  90 N21G36    30.10R
KANKAKEE*      RAIN      51  49  93 N17G28    30.00S
MORRIS*        RAIN      52  50  93 NE9G18    30.00S
LEWIS AIRPORT* RAIN      49  47  94 NE25G32   30.04S
NORTHERLY IS     N/A     47  45  93 N20         N/A
$$

WIZ051-052-058>065-066-070>072-302300-
SOUTHEAST WISCONSIN

CITY           SKY/WX    TMP DP  RH WIND       PRES   REMARKS
MILWAUKEE      CLOUDY    47  42  83 N18G26    30.15R
KENOSHA*       CLOUDY    47  43  86 N22G35    30.12R
RACINE*        LGT RAIN  46  42  86 N21G31    30.14R
BURLINGTON     CLOUDY    47  44  89 NE15G28   30.13S
WAUKESHA       CLOUDY    46  43  87 N12G23    30.15R
WEST BEND      CLOUDY    50  45  81 N12G17    30.16R
$$

INZ001>003-010>013-019-020-302300-
NORTHWEST INDIANA

CITY           SKY/WX    TMP DP  RH WIND       PRES   REMARKS
GARY*          RAIN      48  48 100 N17G30    30.06S
MICHIGAN CITY* NOT AVBL
RENSSELAER*    NOT AVBL
VALPARAISO     RAIN      48  47  96 N13       30.00F FOG
$$

LMZ740>746-302300-
SOUTHERN LAKE MICHIGAN

STATION/POSITION TIME  SKY/WX   TEMP WIND        PRES    VSBY
                                AIR  DIR/SP/G
                 (UTC)          (F)  (DEG/KT/KT) (MB)    (MI)
HARRISON CRIB    2200            46  350/ 30/ 35   N/A
BURNHAM HARBOR   2200            47  350/ 18/ 28   N/A
CALUMET HARBOR   2100            47  340/ 13/ 21   N/A
BURNS HARBOR     2100            47   10/ 14/ 16 1017.6R
MICHIGAN CITY    2200            48  360/ 17/ 20   N/A
$$

ABBREVIATIONS USED IN REMARKS
   TC - TEMPERATURE IN CELSIUS
  WCI - WIND CHILL INDEX
   HX - HEAT INDEX
  VSB - VISIBILITY
$$



USA.gov is the U.S. government's official web portal to all federal, state and local government web resources and services.